Weather in Beloborodovo

Russia / Novosibirsk Oblast     55°03′50″N   82°03′03″E
temp.,
°C
wind,
m/s
gust,
m/s
humid.,
%
clouds,
%
prec.,
mm/h
press.,
hPa
HPBL,
m
29 november, mon
mon2901:00−12sw499699 0.0 1036156
04:00−11sw389684 0.0 1036158
07:00−12ssw399565 0.0 1035135
10:00−14ssw389480 0.0 1035114
13:00−9sw4990100 0.0 1034209
16:00−8ssw4987100 0.0 1033220
19:00−11ssw4988100 0.0 1032149
22:00−11ssw41084100 0.0 1031161
30 november, tue
tue3001:00−10ssw41085100 0.0 1030184
04:00−10ssw41088100 0.0 1029187
07:00−9ssw41186100 0.0 1028192
10:00−10ssw41087100 0.0 1028182
13:00−7sw4985100 0.0 1027218
16:00−7ssw41086100 0.0 1026198
19:00−10ssw388997 0.0 1026104
22:00−14sw379034 0.0 102777
1 december, wed
wed101:00−15sw37895 0.0 102777
04:00−16sw358928 0.0 102860
07:00−17sw348816 0.0 102849
10:00−17ssw358799 0.0 102954
13:00−10ssw3983100 0.0 1028173
16:00−8ssw4118651 0.0 1026206
19:00−10ssw4128740 0.0 1026187
22:00−11ssw4118985 0.0 1026162
2 december, thu
thu201:00−11sw3586100 0.0 102567
04:00−10ssw3987100 0.0 1024116
07:00−11ssw3788100 0.0 102495
10:00−10ssw41086100 0.0 1023135
13:00−7ssw51184100 0.0 1022227
16:00−7s41186100 0.0 1021211
19:00−7s51284100 0.0 1020212
22:00−7s51483100 0.0 1018214
3 december, fri
fri301:00−5s61781100 0.0 1015270
04:00−2s82172100 0.0 1012380
07:000ssw92365100 0.0 1009522
10:000ssw91971100 0.0 1008534
13:00−1sw81788100 0.2 1007583
16:000sw81597100 2.0 1008786
19:00−2w8148367 2.1 1012733
22:00−5wsw715888 0.0 1016480